666  
ASUS43 KFSD 180310  
RWRFSD  
 
WEATHER ROUNDUP FOR SE SOUTH DAKOTA/SW MINNESOTA/NW IOWA  
NATIONAL WEATHER SERVICE SIOUX FALLS SD  
1000 PM CDT SAT APR 17 2021  
 
NOTE: "FAIR" INDICATES FEW OR NO CLOUDS BELOW 12,000 FEET WITH NO  
SIGNIFICANT WEATHER AND OR S TO VISIBILITY
.  
 
 
SDZ038>040-050-052>070-180400-  
SOUTHEAST SOUTH DAKOTA  
 
CITY SKY/WX TMP DP RH WIND PRES REMARKS
 
BROOKINGS PTCLDY 39 26 59 W5 30.06S  
CHAMBERLAIN PTCLDY 40 27 59 W7 30.10S  
HURON MOCLDY 44 27 51 SW5 30.07S  
MITCHELL MOCLDY 44 27 51 W3 30.10R  
SIOUX FALLS PTCLDY 42 24 49 W5 30.07R  
WINNER CLEAR 38 27 64 SW7 30.12R  
YANKTON MOCLDY 44 27 51 W8 30.10R  

 
 
MNZ071-072-080-081-089-090-097-098-180400-  
SOUTHWEST MINNESOTA  
 
CITY SKY/WX TMP DP RH WIND PRES REMARKS
 
FAIRMONT CLEAR 42 27 55 NW6 30.03S  
JACKSON PTCLDY 39 27 60 NW5 30.04S  
LUVERNE PTCLDY 41 21 45 NW7 30.07R  
MARSHALL CLEAR 39 24 55 W8 30.05R  
MONTEVIDEO CLEAR 46 21 36 NW3 30.03S  
PIPESTONE CLEAR 43 25 49 NW3 30.05S  
REDWOOD FALLS CLEAR 46 24 42 NW6 30.02S  
TRACY CLEAR 44 19 36 W5 30.04S  
WINDOM CLEAR 39 21 48 NW6 30.03S  
WORTHINGTON PTCLDY 42 22 44 NW7 30.06R  

 
 
IAZ001>003-012>014-020>022-031-032-NEZ013-014-SDZ071-180400-  
NORTHWEST IOWA  
 
CITY SKY/WX TMP DP RH WIND PRES REMARKS
 
CHEROKEE CLOUDY 47 34 59 CALM 30.06S  
DENISON N/A 45 32 61 NW3 30.08S  
ESTHERVILLE PTCLDY 38 27 64 W8 30.03S  
LE MARS CLOUDY 43 36 75 S3 30.06S  
MAURICE CLOUDY 46 34 61 W7 30.05S  
SHELDON CLOUDY 41 30 65 W3 30.04R  
SIOUX CITY CLOUDY 45 36 70 W5 30.08S  
SPENCER PTCLDY 42 30 62 NW3 30.05R  
STORM LAKE CLOUDY 46 34 61 W6 30.05S  

 
 
ABBREVIATIONS USED IN REMARKS  
TC - TEMPERATURE IN CELSIUS  
WCI - WIND CHILL INDEX  
HX - HEAT INDEX  
VSB - VISIBILITY  
 
 
 
CLICK HERE TO GO TO PREVIOUS BULLETINS.

The Nexlab SD Page
The Nexlab IA Page
The Nexlab MN Page
The Nexlab NE Page Main Text Page